Theta_e
306 306 306 306 306 306 305 305 306 306 306 306 307 308 307 308 308 308 308 307 308 308 307 305 303 301 298 297 298 298 299 300 301 302 305 304 304 307 310 310 309 311 310 306 304 304 303 304 302 305 314 317 320 322 320 323 327 330 332 332 333 335 336 336 337 336 335 333 327 327 329 328 328 324 323 323 322 321 320 319 317 316 316 316 317 315 314 313
305 306 305 305 305 305 305 305 306 305 306 306 307 307 307 307 307 308 307 306 307 307 308 305 301 300 299 297 297 298 300 301 301 303 304 304 306 309 309 309 310 310 308 305 304 305 305 304 303 307 315 319 320 321 323 323 326 331 331 332 334 334 333 332 334 334 333 331 327 327 327 328 327 325 324 326 325 323 323 321 318 318 316 315 315 314 313 312
305 305 305 305 305 305 305 305 305 305 305 306 306 307 307 307 307 307 307 305 303 305 307 304 300 299 299 297 298 299 300 300 301 304 304 303 306 309 308 308 308 306 305 305 304 304 306 304 304 309 315 319 321 322 325 325 327 329 329 333 334 333 332 330 332 333 331 328 327 327 326 327 326 325 326 326 326 325 325 322 321 321 318 315 314 313 312 312
305 305 305 305 305 305 304 304 305 305 305 306 306 307 306 306 307 307 306 304 301 302 303 302 300 300 299 298 298 300 299 300 302 304 303 303 307 308 307 306 304 304 304 304 304 304 306 305 303 309 315 320 321 322 325 326 329 328 328 335 333 331 332 330 330 331 330 328 327 327 326 326 325 325 326 326 328 328 325 322 322 321 317 315 313 313 312 312
305 305 305 305 305 305 304 304 304 305 305 306 306 306 306 306 306 306 304 302 301 301 300 300 300 299 300 299 299 300 300 301 302 302 302 303 306 306 304 303 303 303 304 303 304 304 305 303 303 308 313 319 321 322 326 325 328 329 327 330 329 330 333 330 328 328 329 328 327 327 327 325 323 325 325 327 330 328 325 322 319 317 315 314 313 313 312 312
305 304 304 304 304 304 304 304 304 305 305 306 306 306 306 306 305 303 302 301 302 302 300 300 300 300 301 300 301 301 300 301 302 302 303 303 303 303 302 303 303 303 303 304 304 304 304 303 305 308 310 318 323 324 326 325 327 330 326 325 326 329 331 328 327 327 327 328 328 326 324 322 323 323 320 323 326 323 323 320 317 315 314 314 314 313 312 312
305 305 305 304 304 304 304 304 304 304 305 305 306 305 305 305 303 301 300 301 301 302 301 300 301 300 302 302 303 304 303 303 303 302 303 302 303 303 303 303 302 302 303 304 305 305 305 304 305 306 308 318 324 324 326 325 327 331 328 324 323 324 325 325 326 326 326 326 325 323 323 322 323 322 318 319 320 319 320 318 316 315 315 314 313 312 311 311
304 305 304 304 304 303 304 304 304 304 305 305 305 305 305 302 301 301 300 301 301 301 301 301 301 301 303 304 304 307 307 305 303 303 302 303 303 303 303 303 303 303 303 304 306 307 305 304 306 305 307 316 321 324 327 326 327 331 328 323 321 321 321 322 323 323 323 322 321 322 322 321 320 319 317 317 317 317 317 316 315 315 314 314 312 311 309 308
304 304 304 304 304 303 304 303 304 304 304 304 304 304 303 301 300 301 301 301 301 301 300 301 301 301 303 304 303 306 307 303 303 303 303 303 303 303 303 302 303 303 303 305 306 306 304 305 306 305 306 312 320 325 327 327 329 329 324 321 320 320 320 321 321 320 320 320 321 322 320 318 317 318 318 315 315 316 316 316 315 315 314 313 311 310 308 307
304 304 304 304 304 303 303 303 304 304 303 303 303 302 301 301 301 301 301 301 301 301 301 301 301 301 303 305 305 306 305 303 303 303 303 304 303 303 303 302 303 303 303 304 305 305 305 306 306 306 307 310 319 324 326 327 326 323 321 320 320 320 320 321 320 319 320 319 321 321 319 318 317 321 322 315 313 315 315 316 315 315 314 311 311 309 308 307
304 304 304 303 303 303 303 303 304 303 303 303 302 301 300 301 301 301 301 301 301 301 301 301 301 302 303 306 309 308 304 303 304 303 303 304 303 303 303 302 303 303 303 304 306 305 305 306 306 307 308 311 319 323 324 325 322 320 321 321 320 321 320 320 321 320 321 320 320 320 320 322 320 321 320 314 314 315 315 316 315 315 314 312 312 310 309 308
304 304 303 303 303 303 303 303 304 303 303 302 301 300 300 301 301 301 301 301 301 301 302 301 302 304 303 306 310 307 303 303 304 303 303 303 303 303 303 303 303 303 303 303 304 304 304 305 306 308 309 313 321 324 323 321 321 322 324 323 322 322 322 321 321 320 321 321 320 323 325 324 321 318 315 312 314 315 315 316 315 315 314 313 313 312 310 308
303 304 303 303 303 303 303 303 303 303 303 301 300 300 301 301 301 301 301 301 301 301 301 301 302 304 305 307 308 304 303 303 303 303 302 302 303 303 303 303 303 303 304 303 303 303 303 305 306 307 309 316 323 323 322 321 323 325 325 325 324 324 323 322 321 321 322 321 320 325 332 327 318 315 313 313 314 315 316 316 315 315 314 314 313 312 312 309
303 303 303 303 303 303 303 303 303 303 301 300 300 301 301 301 302 302 302 302 302 301 302 301 302 304 305 307 306 303 303 303 302 303 302 303 303 304 303 303 303 304 303 303 303 303 303 304 306 308 310 317 322 321 321 322 325 326 325 327 328 327 324 321 322 322 322 321 320 325 334 328 317 313 312 312 314 315 316 315 315 314 314 314 313 313 313 310
303 303 303 303 303 302 303 303 303 302 300 300 300 301 301 302 303 302 302 303 302 302 302 301 302 303 305 306 304 302 303 302 303 303 303 303 303 303 303 303 303 304 304 303 303 303 303 305 308 313 315 317 320 321 322 324 325 326 326 328 328 326 323 322 322 323 324 322 320 325 331 326 318 314 312 312 314 315 316 315 315 314 314 314 314 313 313 311
303 303 303 303 302 302 303 303 302 301 300 300 301 301 301 302 302 302 302 302 304 304 303 302 303 303 304 304 302 302 302 301 302 302 303 303 303 304 303 303 303 304 304 303 303 304 305 307 311 316 318 319 321 321 322 324 324 325 327 328 327 324 323 322 322 322 323 324 322 324 328 324 318 315 312 312 314 315 316 316 315 315 314 314 314 314 314 313
303 303 302 302 302 302 303 303 301 300 300 300 301 301 302 302 302 302 301 302 304 304 303 302 301 303 304 303 302 303 301 301 302 302 303 303 303 304 303 303 303 303 304 304 304 306 306 310 314 317 319 321 322 321 323 325 324 325 328 328 325 322 321 322 324 323 322 324 324 322 324 321 317 314 312 312 313 315 316 316 315 315 314 314 314 314 314 314
302 302 302 302 302 302 302 302 301 300 300 301 301 301 302 301 301 302 301 301 303 303 304 303 302 305 306 304 303 302 301 301 302 303 303 303 303 303 303 304 302 303 307 306 305 306 309 313 317 320 322 322 323 323 324 326 324 325 327 327 324 321 322 322 324 324 323 324 324 323 322 318 313 313 313 312 313 314 315 315 315 314 314 314 314 314 314 314
302 302 302 302 302 303 302 302 300 300 300 301 301 302 302 301 302 302 299 301 305 305 306 304 303 305 306 304 302 301 301 301 303 303 303 304 304 304 303 303 304 306 308 306 305 307 313 318 320 322 323 321 322 324 325 325 324 326 327 326 325 323 323 322 323 324 322 324 325 323 322 317 314 314 313 312 312 314 315 315 316 315 314 314 314 314 314 314
302 302 302 302 302 303 302 301 300 300 301 301 301 301 302 303 306 306 303 303 304 302 304 306 303 303 304 304 301 301 303 303 303 303 304 304 304 304 303 302 307 310 308 307 308 310 314 320 321 322 322 320 320 321 323 324 322 326 327 326 326 325 325 323 323 323 321 327 326 318 319 317 314 315 313 313 313 313 315 315 315 315 314 315 314 314 314 315
302 302 302 302 302 302 301 300 300 301 301 301 300 300 300 301 301 303 302 303 300 297 301 304 300 301 302 301 301 300 303 306 304 302 304 304 303 304 304 305 309 310 308 309 312 312 315 320 319 316 316 315 317 319 320 322 323 326 327 327 326 326 325 322 322 322 321 330 327 318 323 321 314 315 314 313 314 314 314 314 315 315 314 314 314 315 315 314
302 302 302 301 301 300 299 300 301 301 301 300 300 298 298 298 298 298 298 301 302 298 300 301 300 303 302 299 300 300 303 307 307 305 304 304 305 304 306 309 311 310 310 312 315 316 318 319 315 311 311 312 316 320 321 322 324 326 326 327 326 325 325 322 322 323 323 330 329 321 328 326 316 315 315 314 314 314 315 314 315 315 315 315 314 315 315 315
302 302 301 300 299 299 299 300 300 300 301 299 299 298 298 299 300 300 299 301 303 301 303 305 303 306 306 302 300 301 304 305 308 308 304 305 308 305 308 313 314 313 314 317 317 318 319 317 311 308 311 316 319 320 321 322 322 324 324 325 325 324 325 324 323 324 322 324 326 324 329 329 320 317 316 314 314 314 315 315 315 315 315 315 314 315 315 315
302 301 300 298 299 299 300 300 300 300 300 299 299 299 299 300 300 300 300 299 302 304 303 302 302 305 306 302 300 302 304 303 305 307 303 305 307 305 308 312 314 315 312 314 316 317 316 311 307 310 315 320 322 320 320 321 322 323 323 322 324 326 326 324 323 324 322 321 323 324 329 332 328 325 320 315 314 314 314 314 315 315 314 313 314 314 315 315
302 301 298 297 299 300 299 300 301 300 299 299 299 298 299 300 299 300 301 301 305 306 301 299 301 304 302 300 301 301 303 305 305 304 302 304 306 307 308 308 311 315 311 312 316 317 315 308 307 314 317 319 320 319 320 321 322 323 323 322 322 325 326 324 323 325 326 326 324 323 330 334 331 330 325 317 314 314 313 314 314 314 313 313 313 313 313 315
302 300 297 297 300 300 300 301 301 300 300 300 299 299 299 300 299 299 301 307 308 303 301 302 302 303 301 300 301 301 305 310 306 302 303 305 305 306 310 310 310 312 310 310 313 313 312 309 310 314 316 317 319 320 319 319 324 323 322 322 321 322 323 323 325 326 328 327 322 321 327 333 333 332 324 318 316 315 313 314 314 313 314 314 313 313 313 314
302 299 297 298 300 300 302 303 301 300 301 301 300 300 299 300 300 297 301 310 309 300 302 304 302 302 301 299 301 304 308 309 306 304 303 305 304 305 312 314 313 311 307 310 315 311 309 312 313 314 318 318 319 321 317 317 325 323 320 322 321 321 322 323 326 326 323 323 322 322 323 328 334 331 320 317 319 318 315 314 314 313 313 314 314 313 313 314
301 299 297 298 299 300 301 301 300 299 300 301 302 301 300 300 299 299 306 309 304 300 302 304 302 302 301 300 303 308 307 306 308 307 302 302 304 306 312 313 312 310 307 313 319 310 307 312 312 313 320 320 317 315 312 317 324 321 318 321 320 321 322 323 325 324 322 324 326 324 322 325 333 328 316 317 323 325 323 318 315 314 313 313 314 314 313 313
301 298 297 298 299 300 301 300 300 300 300 300 300 300 300 299 298 303 310 306 300 301 302 302 303 303 303 304 306 306 304 305 306 304 302 304 304 306 311 310 309 310 308 312 316 309 306 308 306 309 316 317 313 310 311 319 323 319 318 320 319 320 321 322 324 324 326 330 329 324 320 323 332 331 321 319 325 328 328 323 318 315 314 314 313 313 313 313
300 297 297 298 299 299 301 301 300 300 300 299 299 299 297 299 305 312 311 303 300 301 302 302 302 302 303 307 307 304 304 306 304 303 305 305 305 306 307 306 308 312 311 310 311 309 307 304 303 307 311 309 309 310 311 316 319 319 320 320 322 324 325 326 327 327 330 331 325 318 317 319 328 335 327 324 328 326 327 328 323 317 314 313 313 313 313 313
298 296 297 299 300 299 301 301 299 299 299 298 298 298 298 302 312 316 307 300 300 303 304 304 303 303 303 304 305 303 306 307 304 306 308 305 306 308 307 309 313 317 317 314 313 311 308 308 307 307 307 306 310 315 314 316 319 322 323 323 324 326 327 328 327 328 330 328 320 315 315 317 325 331 323 322 326 322 323 329 325 321 317 313 312 312 312 312
297 297 297 298 300 300 301 302 299 297 298 299 298 299 304 307 309 308 303 300 302 303 302 302 304 304 303 304 303 302 305 307 304 304 305 305 305 304 305 308 310 315 318 314 315 316 312 311 310 308 306 305 312 320 319 320 323 323 323 325 325 326 327 328 326 325 326 323 316 313 316 319 324 327 320 321 325 319 316 317 316 314 313 312 312 312 312 312
298 298 297 297 298 299 300 300 298 298 299 299 300 305 314 314 305 301 302 303 301 300 299 300 303 303 304 306 304 302 304 305 304 303 303 305 306 304 303 302 302 311 316 313 316 319 316 312 312 312 310 305 310 320 323 322 324 323 323 326 327 327 327 327 323 321 323 320 313 312 317 323 326 324 319 320 320 314 309 309 307 307 306 308 311 312 312 312
299 299 297 297 298 297 298 298 297 299 299 300 306 311 312 310 303 299 302 304 300 299 299 300 303 304 304 304 301 301 306 305 303 304 305 309 310 308 307 304 303 309 314 313 313 315 317 316 314 312 310 307 308 312 317 321 322 319 317 322 326 325 327 328 324 323 322 318 314 314 318 327 329 321 314 314 313 309 309 308 306 307 305 305 309 312 313 312
301 300 298 297 297 297 297 297 297 299 298 302 312 314 308 306 303 302 304 303 300 300 299 298 304 310 307 304 302 301 304 305 304 305 306 307 307 305 305 305 303 305 313 316 311 310 315 316 314 311 307 307 307 305 307 317 323 316 312 319 319 316 322 322 316 318 319 319 319 318 320 325 322 312 308 311 312 310 311 310 309 310 308 307 311 313 312 312
302 301 298 297 297 297 297 296 297 298 299 308 318 312 306 306 301 300 301 300 299 299 300 301 306 311 309 308 307 302 301 303 305 309 308 303 303 303 303 303 301 301 308 314 312 311 315 315 314 313 308 305 306 306 305 310 321 319 313 314 309 308 318 320 312 311 314 320 320 317 321 324 317 310 308 310 313 313 313 312 311 310 309 311 313 313 313 313
304 302 298 297 297 297 297 297 298 298 301 312 318 306 301 300 297 298 299 299 298 297 304 308 303 302 306 308 308 305 304 304 304 310 309 303 304 303 302 304 301 299 301 306 311 311 312 316 313 311 312 308 303 305 306 305 312 319 317 311 305 306 315 320 318 316 315 318 319 317 319 320 318 317 312 309 312 315 315 313 310 309 310 311 311 309 310 311
303 302 298 297 297 297 297 297 297 300 306 314 315 305 300 297 295 297 298 297 298 298 305 309 300 298 302 305 306 302 304 307 306 308 308 306 306 302 301 304 302 301 298 301 312 311 309 318 316 311 313 310 305 309 312 309 307 311 313 307 306 312 317 316 317 319 318 314 316 316 312 309 314 321 317 313 316 318 316 312 310 311 312 312 310 308 307 307
303 303 301 297 296 296 298 297 296 303 312 315 313 306 299 297 296 296 296 296 297 298 301 303 299 299 300 301 303 300 301 306 305 305 306 306 306 301 299 301 303 304 299 300 311 310 308 318 319 315 313 309 311 312 312 313 310 310 311 307 308 314 315 311 310 315 317 311 310 313 314 314 313 317 320 317 319 320 317 315 314 314 313 312 311 309 308 307
302 304 302 296 297 298 296 297 300 311 315 306 304 301 296 297 297 295 295 296 296 296 299 301 299 300 301 299 299 298 301 304 303 304 305 304 305 303 299 298 302 305 301 301 307 307 309 318 319 318 315 311 313 307 303 307 308 312 314 309 308 306 304 305 305 305 310 313 312 309 314 323 316 311 316 315 315 319 317 317 318 314 312 311 310 309 308 307
301 305 302 296 298 297 297 302 303 305 308 300 297 298 297 298 297 296 295 295 296 296 296 299 300 300 301 300 299 299 303 305 303 303 304 303 305 304 300 298 300 302 303 306 309 306 311 319 318 317 315 311 309 302 298 300 300 304 307 305 307 305 307 312 306 300 303 309 311 306 311 324 315 307 312 311 311 314 311 314 319 314 311 311 309 307 305 304
303 307 301 296 297 296 301 310 298 292 302 301 296 297 298 299 298 297 296 295 297 297 294 296 299 300 301 300 299 301 305 306 303 303 304 302 304 303 299 297 298 298 302 308 308 302 307 317 317 313 309 305 301 297 295 296 296 299 300 300 303 305 314 323 310 302 302 301 301 301 306 319 311 304 309 309 307 309 306 307 312 312 311 310 307 305 302 302
308 307 299 296 298 297 301 306 299 296 303 298 293 295 296 297 297 297 296 296 298 297 295 297 297 298 299 298 298 302 304 304 302 302 303 303 303 301 298 298 299 298 301 307 306 302 307 316 316 314 314 309 302 297 295 294 296 302 302 300 301 301 308 315 310 307 307 303 303 303 306 315 311 304 307 307 304 305 304 304 307 308 308 306 305 305 303 302
307 302 298 297 297 298 301 305 308 307 302 296 296 296 295 295 296 296 297 298 299 297 298 298 296 296 297 297 299 300 300 303 303 300 301 303 301 299 298 299 298 299 303 305 304 304 308 313 316 319 321 318 313 310 308 303 302 308 306 300 300 301 303 306 305 306 307 303 305 309 310 312 308 303 304 303 302 305 306 304 303 306 309 307 305 305 304 302
301 299 302 301 297 297 300 303 310 311 303 300 301 298 296 296 295 296 297 297 296 296 297 297 295 296 296 296 299 299 298 302 304 302 300 302 302 299 299 298 297 300 303 300 299 304 307 308 313 322 322 319 320 320 316 312 309 308 305 301 302 302 303 305 306 309 309 302 301 308 314 312 307 305 303 301 301 303 305 304 302 302 306 307 306 306 304 303
300 301 305 304 300 300 298 295 301 308 306 305 303 298 298 298 296 295 295 295 295 294 295 296 295 296 298 299 302 304 300 299 302 304 303 304 304 300 297 298 299 300 302 299 298 302 307 305 305 316 321 318 319 313 302 303 309 309 306 304 304 302 302 306 310 315 314 306 307 313 311 307 308 309 306 305 306 305 305 305 305 305 306 307 306 304 303 302
300 304 307 303 301 302 300 296 300 305 305 305 303 298 299 300 298 296 294 294 294 294 295 295 296 298 300 301 304 305 302 301 303 305 303 302 302 299 297 297 299 300 301 301 298 301 311 310 300 304 309 304 303 301 295 297 307 309 306 305 305 303 301 304 312 317 311 308 315 316 304 303 309 310 309 309 308 306 307 308 308 308 310 308 305 303 302 301
298 302 302 299 300 303 302 300 302 303 302 303 301 298 300 302 300 300 297 294 294 294 296 297 297 299 301 301 304 305 304 304 305 303 301 302 302 302 301 298 298 299 299 299 299 302 314 311 297 298 303 297 295 296 295 298 302 301 304 307 306 304 303 304 311 313 307 308 316 311 301 304 308 307 307 308 306 305 307 305 304 305 307 307 304 304 305 303
297 299 296 295 300 305 302 299 300 302 304 306 304 300 301 303 301 300 298 296 296 294 296 299 301 302 303 302 303 307 307 307 308 305 304 303 301 304 307 304 301 297 297 300 300 299 308 308 297 298 303 299 295 295 294 296 299 300 305 307 305 306 305 304 308 308 304 307 309 304 301 303 303 302 304 303 302 304 303 301 302 304 307 309 308 307 307 304
298 299 298 299 302 302 299 297 299 304 304 303 303 300 300 302 301 300 297 297 300 297 295 300 303 302 303 303 304 307 306 307 308 306 304 304 303 304 308 307 303 298 299 303 300 297 303 305 297 299 306 302 299 296 295 295 298 301 306 304 300 302 302 300 303 303 303 306 306 302 304 306 303 304 305 303 301 302 302 302 303 304 305 307 309 309 306 304
298 296 297 305 306 301 300 299 299 305 304 302 302 300 299 301 301 300 298 296 299 299 298 302 305 301 300 301 304 305 303 303 305 305 305 306 305 304 304 302 300 301 304 302 300 304 310 305 297 301 309 308 301 298 299 298 296 299 305 306 301 300 303 303 303 302 304 309 309 305 307 309 307 306 306 306 305 304 304 305 305 303 301 303 309 310 306 304
298 295 295 306 307 300 300 300 299 304 307 306 305 301 300 302 300 300 300 298 296 297 297 299 303 303 302 302 303 302 299 298 300 300 300 300 301 301 300 298 299 303 306 305 302 303 307 310 306 303 308 308 300 298 302 301 300 306 311 307 301 299 301 301 300 301 303 306 309 308 308 309 309 306 305 307 310 312 311 309 306 304 302 301 304 306 304 302
Wind_Speed
10 11 11 11 11 11 10 10 10 9 8 8 9 10 9 8 9 9 9 9 10 11 11 11 11 11 12 10 7 5 7 8 8 7 4 3 5 8 10 11 11 11 11 11 11 7 7 7 3 5 2 1 2 2 2 2 3 3 3 4 5 4 3 4 6 6 6 7 9 9 8 10 7 3 4 6 9 7 9 7 6 9 9 13 20 25 24 20
11 11 11 12 11 11 11 10 10 9 9 9 9 9 9 8 9 10 9 9 9 10 10 10 11 11 11 10 7 5 7 7 8 6 3 3 5 7 10 11 10 10 11 10 11 8 5 5 3 0 2 1 1 1 2 1 2 2 3 4 5 4 3 2 4 4 5 9 10 8 8 10 8 6 5 5 7 6 8 6 6 11 11 15 22 23 22 19
11 12 12 12 12 12 11 10 10 9 9 9 9 9 8 8 9 9 9 9 8 9 10 10 11 11 11 9 6 5 6 6 6 3 1 3 6 8 10 10 9 10 11 9 9 7 2 2 4 4 0 1 1 1 2 2 2 2 2 4 4 3 2 1 2 3 4 8 10 7 8 9 7 5 3 7 10 6 6 5 6 11 10 13 16 18 19 17
11 12 12 12 12 12 12 11 10 9 9 9 9 9 8 8 9 8 9 8 6 7 9 10 10 10 9 8 5 4 5 5 3 0 3 5 7 9 10 10 9 9 9 8 8 6 1 3 5 3 1 1 1 2 3 3 2 3 2 4 3 2 1 2 3 6 7 8 8 7 8 9 5 2 5 11 10 5 5 5 7 12 13 14 13 14 15 13
11 11 11 12 12 12 12 11 10 9 9 9 9 9 8 8 8 8 8 7 6 7 8 10 10 8 8 7 4 4 4 4 2 0 5 6 7 9 9 10 10 10 9 9 7 3 2 4 5 2 1 2 2 2 3 4 4 3 1 2 1 1 2 2 4 11 9 8 8 7 8 5 3 4 3 6 6 3 4 6 10 12 13 15 14 14 13 12
11 11 11 12 12 12 12 11 10 9 9 9 9 8 8 8 7 7 8 8 7 8 9 9 8 7 7 6 3 3 2 1 2 2 6 7 7 8 10 12 10 9 8 7 4 0 3 4 4 3 1 1 6 4 2 4 5 3 1 2 2 1 2 3 4 10 9 11 9 7 5 4 5 5 3 4 4 1 4 10 12 12 15 18 16 14 12 10
12 12 12 12 12 12 12 11 10 10 9 9 9 8 8 7 7 7 7 8 9 9 9 7 8 7 8 6 3 3 2 2 4 4 7 7 7 9 11 12 9 8 7 4 2 1 3 5 4 4 1 0 5 4 2 5 5 3 2 2 3 5 5 4 4 8 8 9 7 7 7 5 7 5 4 6 6 4 7 13 14 16 19 20 15 12 12 11
12 12 12 13 12 12 12 11 10 10 9 8 8 8 7 6 6 6 7 8 9 9 8 7 7 7 9 6 1 3 2 3 5 6 7 7 8 11 13 11 7 8 6 3 2 1 3 5 4 3 3 2 3 4 5 7 5 3 2 2 2 5 6 6 7 7 9 8 7 10 9 7 7 6 4 6 5 6 9 13 14 16 17 15 11 11 12 12
12 12 13 13 13 12 12 11 11 9 8 8 7 7 7 5 4 5 6 7 8 8 7 7 7 8 8 4 3 2 3 2 6 6 7 8 10 12 13 10 7 8 4 3 2 2 3 3 4 3 3 3 2 6 8 8 5 4 4 4 5 5 6 8 8 7 7 5 7 12 9 7 6 5 5 5 3 5 8 11 10 11 12 11 9 9 12 12
12 13 13 13 13 13 12 11 11 8 7 7 7 7 5 4 4 4 5 7 7 7 8 7 8 9 7 3 5 2 3 3 6 6 8 9 11 13 12 10 7 5 3 2 2 4 2 3 2 2 3 2 4 6 7 7 5 8 8 7 9 8 6 6 8 6 4 3 5 11 9 5 3 2 3 2 2 3 8 10 7 8 10 9 8 8 11 12
13 13 13 13 13 13 12 11 10 8 7 7 6 6 5 4 4 4 5 6 7 7 8 9 10 10 6 3 4 1 3 5 7 8 10 10 12 13 12 9 5 2 2 1 2 3 2 1 1 2 2 2 5 4 2 5 7 13 13 10 9 9 7 6 7 6 3 3 3 10 10 4 5 3 3 1 1 2 6 8 6 7 7 8 7 7 10 11
13 13 13 13 13 13 12 11 10 8 7 6 5 5 4 4 3 5 5 6 6 6 9 9 11 10 6 2 2 4 4 7 10 11 11 11 11 11 10 6 3 2 2 1 1 1 2 2 2 2 1 1 6 4 3 6 7 11 12 9 6 8 8 5 3 3 4 1 2 6 8 4 5 3 3 2 2 3 6 7 6 5 5 6 6 5 7 9
14 14 14 14 13 13 11 11 10 7 6 5 4 4 4 4 4 5 6 7 7 7 8 8 10 10 5 2 3 3 6 10 11 10 10 9 9 9 6 3 2 2 2 2 2 2 2 1 1 1 1 2 3 3 6 6 3 5 8 7 4 6 5 4 2 3 5 2 3 4 5 2 3 3 3 1 3 6 6 6 6 4 4 4 5 5 5 7
15 14 14 14 13 13 12 11 9 6 5 3 3 3 3 4 4 5 6 8 8 8 8 7 9 8 3 3 4 3 8 11 10 10 10 8 9 8 4 3 3 3 3 3 3 3 2 1 0 2 1 1 3 5 8 5 3 3 6 5 3 3 2 3 2 3 4 1 3 4 3 3 3 4 3 1 3 5 5 5 6 4 3 3 3 4 4 4
15 15 14 15 14 12 12 11 8 6 3 3 2 2 2 3 4 5 7 8 8 8 9 7 8 5 2 3 4 6 10 11 12 13 11 9 9 6 5 6 3 3 4 3 3 3 3 1 0 1 0 1 5 8 6 3 2 2 4 4 4 3 1 3 3 2 1 1 2 3 3 2 3 5 3 1 1 3 5 5 4 4 3 3 3 3 3 3
15 15 15 15 14 13 12 11 8 4 3 2 1 0 1 1 3 6 8 9 8 7 6 4 6 2 2 2 5 8 9 10 14 15 11 8 6 5 7 8 3 2 3 3 2 2 2 0 0 1 2 3 6 8 6 3 2 1 1 5 6 5 1 2 3 3 2 2 2 1 3 2 2 5 4 2 2 2 4 4 4 4 3 3 2 2 3 3
15 15 15 15 15 13 12 10 6 3 2 2 1 1 1 1 3 5 8 10 8 6 1 3 7 2 2 3 6 7 8 12 18 16 11 7 5 5 6 4 2 1 1 2 1 1 0 0 1 1 2 2 5 7 7 4 2 0 2 3 5 6 4 2 1 0 3 3 2 2 4 4 3 6 5 3 3 2 3 4 4 3 2 2 2 2 3 3
16 16 15 15 15 13 12 9 5 2 2 2 2 2 2 3 5 5 8 9 7 4 1 5 9 3 1 7 8 9 13 17 17 12 8 5 4 5 4 1 2 2 3 4 1 1 1 1 0 2 3 2 5 7 6 6 7 8 6 5 6 6 6 4 2 0 2 2 3 5 6 5 4 5 4 3 3 3 3 3 3 3 3 2 2 2 3 3
15 16 16 16 15 13 11 7 3 1 1 1 2 3 4 6 6 3 6 8 4 2 0 3 5 2 4 8 10 13 16 14 10 7 6 6 5 4 1 2 2 2 3 3 1 1 1 2 2 3 3 4 6 4 4 6 9 11 8 7 8 7 5 4 1 2 1 2 4 5 5 5 5 5 4 3 3 3 2 2 3 3 3 2 2 3 3 3
15 16 16 15 14 13 10 4 1 1 1 2 1 2 3 3 4 3 5 5 1 1 1 3 1 1 5 6 9 14 13 6 4 4 7 8 4 0 1 4 4 4 4 2 1 1 2 3 1 2 2 3 3 1 5 9 9 10 9 8 9 8 5 3 1 2 2 1 4 4 4 5 5 5 4 3 3 3 3 3 3 3 3 3 3 3 4 3
15 16 16 15 14 12 7 0 2 2 3 2 0 1 1 1 2 3 4 4 3 2 2 4 3 4 8 8 9 10 5 3 4 4 9 8 1 2 1 3 4 4 3 2 1 1 2 4 1 2 2 0 2 1 8 12 10 10 8 9 8 6 5 3 2 1 4 2 3 3 4 4 4 5 4 4 4 4 5 5 4 4 3 3 4 4 4 3
16 16 15 15 12 9 3 2 3 4 4 3 3 5 4 4 3 1 1 2 5 3 3 5 2 4 8 7 5 5 3 4 6 5 10 9 3 1 2 3 5 2 3 1 2 2 4 2 2 3 4 2 3 2 11 13 10 9 6 7 7 6 6 4 3 3 5 3 1 3 2 2 3 4 4 5 4 3 4 5 4 5 4 4 5 4 4 4
15 15 15 13 10 6 2 3 4 4 4 4 6 7 6 4 3 2 1 1 4 4 2 3 2 4 6 3 3 5 3 3 3 6 11 9 3 2 2 4 5 3 4 4 4 4 4 1 4 3 3 1 5 4 11 11 6 6 5 6 6 7 7 3 1 3 4 2 2 2 2 1 2 3 3 5 4 3 3 4 4 4 5 5 5 5 5 5
15 15 14 10 7 3 2 4 4 4 5 5 6 7 6 4 3 1 1 2 3 4 2 2 2 3 4 2 4 4 2 1 2 5 10 7 1 2 3 3 4 5 4 3 7 6 3 2 3 2 1 3 8 7 10 10 4 3 4 5 8 8 6 5 5 3 2 4 2 4 3 3 1 2 3 3 3 4 4 4 4 4 4 5 5 6 5 5
14 14 12 8 5 2 3 3 4 5 5 5 6 6 6 3 1 1 2 3 3 5 3 1 1 2 2 3 7 3 0 2 3 4 7 4 1 1 2 1 3 4 3 2 8 7 3 4 3 3 3 5 8 5 4 7 7 2 1 3 7 8 9 10 9 5 3 2 1 3 2 3 3 3 3 3 3 4 4 5 7 6 6 6 6 6 5 5
14 13 10 6 3 2 3 1 3 5 3 2 4 5 4 2 2 2 3 4 3 4 4 3 0 4 5 6 6 1 2 3 4 4 5 3 2 1 2 2 2 3 1 2 5 4 3 5 4 4 3 6 7 5 3 2 8 3 2 4 3 5 12 14 11 5 3 2 1 2 2 1 3 4 2 2 4 5 5 7 8 7 7 7 7 6 6 6
14 13 8 4 2 1 1 0 3 4 0 1 4 4 2 1 2 3 3 4 4 3 3 4 2 5 5 5 5 2 2 6 5 4 3 3 4 1 4 4 3 2 1 2 4 2 4 7 6 5 5 5 5 4 5 2 7 4 4 8 6 6 11 12 9 4 2 3 2 3 3 1 2 4 2 0 3 5 7 9 9 8 8 8 8 7 7 7
14 12 7 3 1 1 0 1 4 4 0 1 4 3 2 2 0 2 5 4 3 2 1 3 4 4 4 5 5 3 1 5 2 3 6 5 4 2 6 4 3 3 2 4 3 1 2 6 5 3 5 5 2 0 4 2 5 1 4 8 6 6 7 6 7 4 2 3 2 3 2 1 3 4 2 2 2 7 9 9 9 9 9 9 9 8 7 7
13 10 6 2 1 2 2 2 3 3 1 2 3 2 2 2 1 4 6 2 2 2 1 2 5 5 6 6 6 4 3 3 2 4 8 6 5 4 5 1 5 8 7 7 5 0 1 1 2 1 4 3 2 3 4 1 3 3 6 9 6 5 6 5 5 4 3 3 1 2 2 1 4 4 0 1 2 7 9 6 6 9 10 10 9 8 8 6
11 8 4 1 1 2 3 2 2 2 2 2 4 3 2 2 4 6 4 1 1 3 2 2 4 4 7 7 6 7 6 3 2 5 5 4 5 6 4 2 4 9 7 8 7 1 1 1 1 3 3 1 2 2 2 1 4 7 8 9 6 4 4 4 3 4 4 2 2 2 3 2 2 4 2 2 3 5 5 4 3 5 8 10 10 9 9 7
9 6 4 1 1 1 2 2 2 3 3 4 4 2 1 2 4 6 2 3 2 3 3 4 4 4 7 5 4 7 5 5 6 6 6 5 6 8 5 3 3 5 5 6 5 3 5 5 2 1 1 1 2 2 2 2 2 6 5 5 5 3 3 3 3 3 4 1 3 2 1 3 1 5 4 4 6 4 4 4 4 3 6 8 8 9 8 7
7 5 4 1 1 1 2 2 3 4 5 5 3 2 3 3 4 2 2 3 2 3 2 2 4 5 5 3 4 6 4 4 5 5 4 4 5 5 4 2 1 3 4 3 3 5 6 4 3 4 2 3 4 3 3 4 3 5 5 5 4 2 1 2 1 1 1 2 3 1 0 2 4 6 5 5 6 5 4 4 5 5 5 5 7 7 6 6
5 4 4 2 1 2 3 4 5 6 6 5 1 4 6 5 2 2 3 3 1 3 1 1 4 4 4 4 5 6 3 3 4 4 3 2 4 3 2 3 1 1 2 1 2 4 3 2 6 7 3 3 4 2 2 1 1 4 5 4 2 3 2 1 0 1 0 2 3 2 1 1 3 5 4 5 5 4 4 4 5 6 6 6 5 6 6 6
4 4 4 4 4 4 5 5 6 6 5 2 2 5 7 4 1 2 2 3 2 3 2 1 4 4 4 3 3 4 3 3 4 5 4 3 5 4 4 5 6 3 2 2 2 2 2 1 5 5 3 4 4 1 2 2 3 2 1 3 3 3 3 2 2 1 2 1 3 3 1 2 2 2 4 5 5 4 3 4 4 4 5 5 4 5 7 6
2 2 3 4 5 5 5 5 5 5 3 2 5 6 5 1 3 1 2 4 2 3 2 1 3 5 5 3 3 3 3 3 4 5 5 4 3 3 4 4 6 4 3 2 1 1 3 1 4 2 2 4 4 2 1 3 3 0 1 3 2 1 3 3 2 3 3 2 1 1 2 3 3 3 4 3 5 5 4 4 4 4 4 2 3 5 6 6
1 1 2 3 3 3 4 4 3 2 1 4 6 4 2 3 3 2 1 2 1 2 3 3 4 5 4 5 4 5 3 2 4 4 4 3 1 2 2 3 3 3 2 2 1 0 2 1 4 3 3 3 2 2 2 2 1 0 2 2 1 1 6 5 2 1 3 2 1 1 2 4 3 3 4 5 6 6 5 5 5 5 5 2 3 3 5 5
1 1 2 2 2 2 2 2 1 1 2 5 5 1 3 2 3 3 0 1 0 1 3 2 2 3 2 3 4 6 5 3 4 4 3 2 2 3 4 3 2 2 1 1 2 1 2 2 2 2 2 2 3 1 3 2 2 2 2 3 1 2 4 4 2 3 4 1 2 2 2 4 2 2 4 6 5 6 5 5 5 4 3 2 1 1 3 4
2 2 2 3 2 1 1 1 1 2 4 5 4 1 1 1 2 2 0 1 0 3 4 2 1 1 1 0 2 5 4 3 3 4 2 2 2 2 3 3 2 1 2 1 2 1 1 2 2 1 1 3 2 2 3 4 2 2 4 3 1 2 1 2 2 1 1 0 3 3 3 3 3 4 3 3 5 7 6 4 4 4 2 1 2 2 1 2
2 2 2 3 2 1 1 1 0 4 5 4 2 2 1 1 1 2 1 2 1 2 2 2 0 1 1 1 1 3 3 3 2 2 2 1 2 2 2 1 2 2 2 1 2 0 0 3 1 3 1 2 4 4 2 4 6 4 4 3 2 3 2 1 2 2 2 2 2 3 3 3 5 5 4 6 8 7 6 4 4 5 5 4 4 3 3 3
2 2 1 1 3 2 1 0 3 6 5 2 3 2 0 1 1 1 2 2 2 1 1 1 1 1 0 1 0 1 2 3 2 2 1 1 1 2 1 1 2 4 4 2 3 1 2 4 1 4 4 2 2 2 1 2 3 3 4 3 2 2 1 1 2 2 2 2 1 1 3 4 5 3 5 6 7 7 7 6 6 6 5 4 4 4 4 4
3 2 1 1 2 2 1 4 5 4 3 2 2 1 0 1 1 1 3 3 2 0 1 1 2 2 1 0 1 0 2 3 2 2 1 1 1 1 1 1 1 3 4 3 3 2 1 3 3 1 4 2 1 1 1 2 2 2 1 1 2 2 3 3 1 2 2 2 2 2 2 6 5 2 4 4 4 5 5 5 5 5 5 5 5 4 4 3
3 1 2 0 1 2 3 5 2 2 3 2 0 0 0 1 2 1 2 3 2 1 1 0 1 1 2 1 0 1 2 2 2 2 0 0 0 1 1 1 2 1 1 1 2 1 1 3 4 2 1 1 3 2 1 1 3 4 1 1 3 2 4 5 0 2 2 2 1 3 0 6 5 3 4 4 4 3 3 4 5 5 5 5 5 4 2 1
2 2 0 3 1 1 5 3 1 2 2 1 1 1 1 1 2 0 1 3 1 1 2 2 1 0 0 1 0 1 2 1 1 1 1 2 2 2 2 2 2 1 2 1 2 1 2 3 4 2 4 4 4 4 1 1 3 3 1 1 2 2 3 4 3 2 3 2 1 2 1 5 5 2 3 4 4 5 4 4 5 5 4 4 4 4 2 1
2 2 0 3 2 1 2 1 1 1 1 2 1 2 2 0 1 1 1 1 0 2 1 1 1 0 1 1 2 1 1 1 0 1 0 1 1 0 2 2 1 1 1 0 1 1 1 1 3 3 3 4 5 5 4 3 1 1 1 1 2 3 5 3 2 3 1 2 4 3 2 5 3 3 2 3 3 5 5 4 4 5 4 4 4 4 3 2
2 1 1 3 4 4 2 3 5 4 2 1 3 0 1 2 1 1 1 3 2 2 2 1 1 0 0 1 3 2 1 1 1 0 0 1 2 1 1 1 0 1 1 1 1 1 2 2 3 5 4 2 1 2 3 3 2 1 1 1 1 3 4 1 1 3 1 2 3 4 4 6 5 5 3 2 2 4 5 3 3 4 4 4 4 4 4 4
2 1 2 4 5 6 2 1 4 5 4 4 3 1 1 2 1 2 1 2 2 2 2 0 1 1 1 2 3 3 3 2 1 2 1 1 2 2 1 0 0 1 2 1 2 3 4 3 3 5 6 5 5 5 4 1 1 1 1 1 1 2 3 3 3 1 3 2 1 5 5 4 9 7 5 5 3 4 5 3 4 5 5 5 5 4 5 4
1 2 2 1 1 3 3 2 3 3 4 4 3 2 3 2 1 1 1 0 1 1 1 1 1 1 1 1 2 1 2 3 2 2 1 1 3 2 2 0 1 1 1 2 2 3 5 2 2 4 3 3 4 4 3 1 1 2 1 1 1 1 3 4 3 4 4 3 4 7 4 2 8 6 4 6 5 4 5 5 5 6 5 5 4 4 5 5
1 2 2 1 1 1 1 1 3 4 4 3 3 2 4 3 2 2 0 1 1 0 1 1 0 2 4 2 2 2 1 3 2 1 1 1 2 3 2 0 0 1 2 2 2 2 6 2 1 2 0 2 2 2 3 1 1 2 2 3 3 3 5 6 6 5 6 4 6 4 5 5 9 7 7 8 6 5 6 6 5 4 4 5 4 5 7 7
1 1 1 2 0 3 2 1 4 6 4 3 2 2 5 5 5 3 1 2 1 2 1 1 4 3 2 1 2 3 2 2 1 2 2 2 0 1 1 0 0 1 2 2 3 2 4 2 1 1 1 2 2 2 2 1 2 3 4 6 5 5 7 7 5 4 5 5 7 3 4 10 11 10 12 10 6 6 5 3 3 4 4 6 6 7 8 8
1 2 1 2 3 1 1 2 5 6 3 2 1 2 4 6 6 3 1 4 2 1 2 3 5 3 3 2 2 1 5 5 4 3 4 4 0 1 2 2 1 2 3 2 2 2 2 1 1 2 2 3 3 3 3 2 1 4 6 5 5 3 4 5 4 2 3 6 8 3 5 11 8 7 9 7 1 2 4 5 5 6 6 6 7 8 9 9
2 3 3 4 2 1 1 2 4 5 1 1 3 4 4 6 8 4 1 2 3 4 6 6 5 3 3 2 0 4 6 5 5 5 6 5 2 2 1 1 2 2 3 2 2 3 3 2 0 4 3 4 4 5 6 4 1 4 9 9 8 6 4 4 4 5 6 5 3 1 3 8 5 2 3 4 1 2 6 7 7 6 6 7 8 9 10 10
3 3 3 5 2 1 1 2 3 3 2 3 3 4 3 5 7 5 3 0 1 2 3 6 8 5 3 1 4 5 4 4 4 4 3 3 3 4 3 2 4 3 2 2 2 3 3 4 1 3 2 5 4 4 5 6 5 4 9 9 10 8 5 3 3 6 8 6 5 4 7 6 2 1 2 3 3 4 6 7 6 6 6 7 9 10 10 10
Wind_Direction
353 352 350 347 346 340 336 339 343 343 340 336 337 339 342 340 338 341 337 339 339 336 339 340 347 346 344 341 326 322 323 326 332 328 329 348 354 359 351 337 341 341 331 343 1 21 46 54 32 351 15 206 22 140 167 87 93 110 144 190 211 201 204 198 183 176 140 143 157 162 144 124 130 130 129 77 68 97 90 76 69 65 68 90 110 125 132 135
352 351 348 347 344 338 336 337 339 338 334 330 331 336 338 336 338 339 336 339 339 337 339 343 352 350 348 343 332 334 328 327 328 316 316 6 11 356 346 345 347 334 333 348 359 13 41 55 91 32 351 297 350 154 186 91 108 123 148 194 211 193 199 227 183 158 143 156 150 145 138 127 140 148 146 119 117 120 96 95 94 90 90 97 111 124 131 135
351 350 346 346 343 337 335 335 336 333 330 329 328 332 334 334 336 338 341 343 340 342 341 346 354 350 348 343 339 338 330 331 324 316 355 15 14 352 348 350 345 337 342 349 347 352 15 80 130 159 70 299 290 202 174 138 139 138 158 201 212 199 220 322 133 103 87 134 129 127 135 125 139 153 144 129 122 119 120 136 126 121 123 116 119 126 131 137
349 348 345 344 341 335 334 333 332 330 330 329 327 328 330 331 334 339 346 349 349 351 346 349 353 350 348 344 344 328 334 349 313 59 28 4 7 351 346 347 341 340 342 343 337 332 334 127 135 144 116 143 300 292 179 150 135 148 180 194 201 190 190 345 140 118 82 103 109 110 120 122 135 119 131 136 124 129 157 166 148 139 136 130 130 130 134 138
344 344 342 342 340 333 333 333 328 328 326 327 327 325 328 330 333 344 351 355 354 355 351 348 350 349 346 345 340 321 352 11 285 360 10 358 357 343 344 344 334 332 336 340 331 330 105 128 120 105 72 141 168 235 189 157 118 127 215 153 188 197 138 338 143 136 123 118 109 110 117 126 122 70 102 137 132 159 163 148 140 136 134 131 132 134 136 136
344 340 338 337 336 334 333 331 327 327 325 324 324 322 327 328 337 353 356 359 357 356 354 347 349 347 344 345 329 328 36 343 279 334 342 343 343 337 344 339 331 330 332 332 318 112 106 105 115 148 262 157 170 177 162 150 122 127 227 84 11 17 85 338 122 133 141 137 129 127 118 107 101 78 30 53 76 79 116 125 129 129 130 128 128 134 137 137
344 340 338 335 334 334 332 329 327 327 327 325 323 322 326 330 348 360 358 1 357 356 356 351 353 351 346 345 330 10 71 260 304 332 321 329 334 337 343 337 335 333 330 338 336 140 118 112 137 169 145 180 174 169 135 133 119 122 138 89 28 46 55 2 85 114 120 123 124 118 103 86 95 91 37 41 60 67 99 115 121 127 129 127 128 132 133 134
343 340 339 336 334 334 330 326 325 326 325 323 321 321 325 338 355 360 2 358 354 357 356 353 355 357 352 349 357 4 349 275 317 328 318 327 333 339 343 340 339 337 345 20 3 150 130 130 170 171 154 231 191 164 147 131 131 134 115 108 68 60 70 54 64 84 93 103 107 98 87 81 89 93 64 31 48 80 100 112 120 127 128 126 125 125 126 125
343 341 339 337 335 334 328 322 322 322 319 318 319 318 325 346 356 359 2 351 352 355 351 351 346 352 351 358 82 10 293 291 334 331 322 329 331 336 342 343 337 337 2 25 11 131 151 167 187 174 175 238 206 165 159 158 165 139 107 102 95 83 87 84 73 71 82 101 109 98 92 95 90 79 66 18 22 94 110 113 122 128 126 125 119 119 124 121
344 342 340 338 335 333 327 323 322 319 317 316 314 317 330 349 350 350 357 349 350 347 344 350 342 346 346 8 69 23 288 335 345 333 320 320 322 329 339 341 335 335 3 17 56 109 134 180 194 149 138 237 215 178 168 180 152 107 102 89 93 95 84 91 96 88 67 24 85 110 114 95 51 50 90 19 346 107 120 116 119 125 123 124 119 117 123 121
344 343 342 337 334 332 329 325 323 319 315 310 309 318 334 347 343 340 348 342 343 344 337 341 345 342 335 32 91 208 293 340 336 331 323 314 315 326 336 336 335 351 16 43 121 88 61 138 180 135 119 243 190 155 134 167 127 113 108 82 84 93 76 73 99 104 91 20 40 108 113 63 22 47 95 99 23 102 119 113 109 115 117 120 118 113 119 122
344 344 342 335 332 333 331 324 321 319 309 302 308 319 335 344 339 329 329 325 332 335 326 334 345 337 331 30 140 229 299 329 322 323 322 316 315 327 333 331 346 7 357 8 155 48 19 40 82 144 259 226 154 140 146 152 126 119 110 93 98 94 70 37 65 89 101 105 326 95 106 52 29 66 83 82 109 113 114 110 100 102 110 115 115 111 117 127
344 344 341 334 332 334 330 323 319 315 301 294 306 322 337 341 342 334 323 316 316 314 311 324 333 335 350 334 259 262 311 324 323 324 325 320 318 328 333 329 340 328 323 303 276 322 335 16 96 208 244 125 144 151 137 126 79 102 109 111 123 99 61 3 20 97 105 128 319 56 117 105 65 104 97 80 137 132 124 120 111 96 97 106 113 115 119 137
344 343 339 335 336 334 329 324 316 302 292 289 304 323 339 341 348 342 327 314 308 301 300 311 321 334 1 281 272 306 324 329 334 338 335 327 326 332 335 325 310 283 280 278 281 301 308 335 156 251 243 166 181 132 115 97 36 100 123 126 128 115 75 13 35 99 112 143 342 45 129 148 139 140 108 81 152 139 130 123 117 103 89 91 100 112 118 141
344 341 338 337 336 333 329 324 310 292 281 278 292 326 341 351 3 357 342 324 310 294 291 303 314 333 9 288 285 318 327 333 338 343 341 333 332 328 325 322 294 255 263 252 260 274 275 338 47 230 180 183 165 130 110 86 56 107 143 140 132 112 51 23 52 54 88 142 32 69 128 127 148 150 124 100 99 128 132 121 113 112 114 108 100 116 123 140
342 341 339 337 336 332 329 323 306 281 266 267 263 348 326 360 14 8 357 343 330 306 293 311 318 354 85 303 317 325 327 329 329 334 334 330 327 311 318 320 293 234 237 212 230 265 267 93 171 206 139 152 155 129 105 90 58 334 148 144 143 127 96 14 49 19 18 94 36 29 147 125 141 141 121 113 103 104 127 128 126 125 128 127 126 145 145 148
342 340 338 337 335 331 329 322 301 267 254 246 204 206 239 336 351 355 357 351 340 321 320 352 338 25 133 311 327 323 315 317 320 324 328 331 324 315 319 319 340 350 163 136 140 254 337 59 250 206 135 137 150 133 123 137 153 110 102 122 129 127 126 93 98 360 29 69 35 27 112 103 113 133 120 118 123 104 125 140 143 139 143 144 148 167 175 180
342 340 337 337 335 332 330 320 294 259 243 222 182 207 236 304 315 320 348 350 337 336 29 353 354 44 254 316 316 305 305 311 315 321 334 338 321 321 322 332 5 4 57 60 51 242 347 3 81 141 138 146 159 156 158 169 164 154 149 130 121 126 132 132 162 191 44 89 95 72 88 90 104 130 129 131 135 136 146 145 144 148 158 168 175 190 199 202
342 339 336 336 335 332 328 314 285 240 229 177 176 240 270 306 312 301 352 6 9 19 359 310 359 111 261 297 297 307 312 312 321 330 339 336 315 306 332 32 24 67 81 60 40 269 36 62 117 148 158 157 156 173 159 143 146 144 137 127 132 129 123 140 152 8 41 108 68 68 94 113 128 146 159 160 146 146 152 139 142 152 162 180 194 209 213 215
341 339 336 336 334 332 327 309 211 136 122 127 195 294 316 332 348 330 345 13 97 162 202 220 167 225 281 290 302 324 328 324 345 356 351 344 328 253 56 28 25 53 78 133 166 252 143 95 91 135 146 136 110 314 118 109 115 123 119 120 130 127 110 124 116 356 315 88 41 48 99 112 135 156 166 158 143 154 186 175 162 169 176 193 204 219 224 226
340 338 337 336 334 336 336 312 129 115 109 100 122 16 91 151 38 338 321 331 256 240 266 242 216 253 275 282 309 337 353 344 330 351 2 354 28 115 324 15 48 46 18 204 183 325 108 97 360 351 324 352 4 231 125 106 107 110 118 127 123 122 106 78 112 355 328 65 45 18 77 93 125 155 154 150 168 190 204 198 184 181 182 202 211 221 227 215
339 337 337 336 337 348 9 118 124 123 113 93 95 100 126 142 115 192 295 326 281 275 276 280 283 272 278 278 310 349 42 7 330 331 0 359 25 51 321 50 85 98 349 357 121 59 78 78 315 322 302 328 24 147 122 106 106 103 110 131 124 126 109 63 57 26 2 47 31 355 46 96 133 154 166 171 191 201 201 204 193 179 184 204 209 216 224 212
339 338 337 336 345 6 56 121 127 120 111 124 115 106 118 120 118 167 109 62 291 300 316 321 332 297 308 329 360 3 31 28 322 316 352 3 14 44 73 71 79 87 16 40 101 111 103 20 314 323 296 88 72 92 111 97 82 97 116 127 129 139 128 112 80 34 17 53 140 109 44 323 139 147 185 188 195 193 188 203 202 186 191 203 206 208 213 211
338 339 337 339 355 21 100 123 129 109 102 126 118 115 129 122 109 121 77 69 309 297 268 248 228 265 293 323 344 6 33 344 253 308 348 13 22 32 86 111 86 55 17 65 90 88 84 339 318 360 345 113 107 105 111 107 81 85 115 129 146 147 119 116 131 118 44 35 86 111 48 319 252 184 210 182 186 204 193 199 214 212 204 205 212 213 209 208
338 338 337 343 1 52 115 121 131 116 107 114 116 127 134 117 80 66 65 56 334 297 299 269 216 281 287 331 343 359 40 292 219 279 326 2 3 10 59 104 91 53 343 66 85 80 35 348 357 34 55 92 105 103 98 122 124 100 87 134 158 151 119 118 132 128 93 28 356 101 79 300 293 248 217 155 178 214 202 206 219 216 210 208 213 215 207 207
337 337 340 349 6 98 115 123 145 130 110 106 134 148 141 118 53 44 76 60 349 301 335 347 313 348 345 349 338 15 78 315 269 303 328 346 337 107 72 357 58 90 145 95 90 94 352 352 34 43 80 88 94 92 352 104 128 133 174 128 117 132 129 136 144 133 122 174 291 68 125 264 313 288 252 162 193 214 205 214 222 216 212 211 211 210 203 203
336 338 343 350 10 97 116 172 169 161 162 247 178 175 175 155 48 35 61 42 357 306 332 321 323 360 347 329 327 69 71 307 309 10 16 351 316 96 75 18 29 32 194 102 63 52 344 359 31 41 68 75 84 84 344 353 122 133 168 140 130 133 136 138 133 112 124 142 50 29 93 103 304 284 304 29 221 240 227 220 219 215 216 214 212 209 200 199
337 339 346 353 29 68 156 159 172 173 137 210 188 194 216 204 324 55 76 60 334 319 347 304 316 342 332 334 4 71 263 305 18 359 341 9 347 62 70 50 85 29 347 102 79 350 11 10 5 20 62 66 67 220 299 351 96 127 148 130 130 125 120 111 101 93 90 105 61 339 44 93 265 277 351 25 291 267 249 227 209 209 217 216 215 214 203 199
338 340 347 358 84 98 103 134 170 174 139 161 158 186 199 150 72 59 72 89 306 334 196 312 335 332 339 354 17 40 337 343 74 308 330 24 16 52 83 136 112 69 33 80 99 321 62 360 265 77 65 52 301 262 243 91 83 157 124 102 93 84 76 74 93 102 60 65 142 299 18 91 269 280 360 47 282 257 257 249 203 199 210 213 212 211 201 197
341 342 350 346 154 118 115 111 133 162 163 135 132 147 147 92 64 57 49 239 294 325 272 360 347 327 356 7 3 5 5 349 333 330 353 26 357 25 77 208 106 78 41 59 76 356 302 245 186 86 69 235 268 276 240 150 131 135 113 96 86 60 51 55 60 81 66 19 265 321 8 95 288 283 215 189 231 225 241 276 259 201 204 212 212 208 199 190
347 351 359 309 188 137 147 116 108 145 140 126 136 140 76 29 64 83 69 251 269 321 345 1 332 354 18 31 8 346 355 342 341 12 16 5 7 18 31 11 42 59 33 38 44 359 17 30 16 17 40 31 9 19 16 358 89 105 110 118 104 53 27 43 15 44 85 265 275 317 13 125 202 264 233 227 242 217 198 244 275 249 214 214 215 210 197 182
359 3 4 330 189 114 143 146 134 138 136 138 137 74 69 29 27 94 276 316 325 307 355 327 309 357 356 9 21 337 338 352 355 42 33 6 38 35 29 36 20 42 32 12 356 11 24 17 345 342 350 36 27 49 46 360 23 92 126 131 113 101 53 66 36 22 117 240 288 309 143 168 232 250 244 243 249 235 217 235 267 273 254 232 217 210 195 176
12 14 21 64 118 97 108 133 144 140 146 157 113 45 77 69 17 222 274 334 312 282 336 285 297 334 338 4 12 330 345 15 350 34 47 31 57 39 18 44 43 119 81 35 7 25 28 330 358 7 354 20 39 92 113 355 54 110 138 132 116 127 103 106 125 11 267 253 307 299 227 242 269 271 248 236 249 251 248 257 261 263 264 255 226 196 184 181
28 26 42 81 98 102 108 118 137 145 156 156 65 49 65 69 235 211 284 272 244 308 344 307 309 336 17 35 340 319 25 38 357 22 23 29 44 11 348 12 21 56 104 79 40 42 79 354 360 11 339 2 22 54 158 129 99 86 167 123 118 138 136 161 168 136 182 233 322 310 257 197 206 276 256 243 277 294 285 289 282 272 269 256 229 181 172 184
35 31 55 84 96 106 112 114 133 150 158 77 59 62 82 158 235 192 256 256 268 320 315 20 20 20 9 348 333 349 33 20 10 34 26 29 48 6 347 339 356 29 81 83 24 56 92 302 295 307 328 357 357 315 29 76 85 294 308 73 69 140 131 128 147 155 150 121 344 275 248 224 211 271 296 307 319 323 331 338 348 339 321 272 185 173 169 177
35 45 73 83 102 117 115 114 137 168 137 76 61 61 151 193 203 160 189 265 296 319 325 356 32 42 351 323 341 348 353 15 25 39 25 21 32 352 349 293 320 18 55 93 111 167 96 321 298 333 6 340 309 316 5 41 125 93 61 66 307 137 118 112 109 69 90 121 231 264 267 294 316 304 328 357 338 320 332 343 348 340 342 34 128 164 168 171
43 64 83 64 87 125 128 110 136 189 89 79 80 112 209 197 174 168 149 346 260 49 60 31 2 31 346 323 329 326 338 12 25 42 24 3 15 352 338 295 288 26 11 106 124 204 125 125 296 358 49 281 250 318 9 36 135 113 118 169 197 102 103 102 95 25 44 139 273 325 278 301 333 292 329 353 322 291 294 316 326 331 355 49 109 173 163 166
71 83 70 47 66 124 122 69 37 95 75 67 79 148 192 176 182 186 141 68 205 31 70 122 304 27 176 182 319 313 341 7 8 44 52 9 20 356 337 313 292 43 346 353 101 91 110 102 298 254 146 297 318 66 19 356 16 96 132 148 110 116 123 41 86 110 81 170 292 317 303 274 213 224 293 293 246 248 259 287 299 284 268 223 222 213 167 154
74 73 38 29 39 15 348 245 47 72 67 69 120 185 183 202 232 189 137 95 87 20 53 174 196 53 140 146 280 305 355 35 19 57 85 53 30 23 31 343 299 328 341 3 100 83 61 89 337 289 261 315 3 50 34 330 339 13 55 23 11 121 152 68 87 132 134 139 277 317 327 274 229 216 206 218 225 217 222 247 249 240 238 227 219 205 189 183
66 67 340 8 37 9 312 256 50 59 65 113 180 186 155 206 224 115 79 76 103 53 346 201 155 82 212 215 234 326 22 54 59 68 76 64 39 11 15 59 294 312 326 11 79 29 14 87 127 304 340 15 22 43 130 250 313 352 24 16 17 58 98 131 84 65 90 123 170 319 320 274 254 211 181 214 230 207 202 214 222 231 236 235 234 220 207 205
77 65 283 345 26 323 5 48 43 61 90 119 160 180 149 163 145 57 41 63 94 70 301 190 159 135 160 145 27 65 56 41 41 65 60 17 63 20 310 144 171 303 329 24 47 27 14 88 118 346 14 42 276 295 164 192 194 170 91 91 124 96 108 112 19 343 71 97 156 144 292 273 263 209 196 227 233 215 216 216 221 234 227 231 242 228 214 214
86 100 272 24 296 295 48 56 36 90 102 100 107 286 341 91 102 57 34 57 72 54 4 220 165 138 148 133 22 143 108 51 27 45 83 277 93 210 256 131 153 240 35 63 329 319 116 94 82 53 15 233 272 294 59 136 155 145 116 123 140 96 96 114 180 274 88 65 112 113 305 274 267 222 219 250 256 249 244 221 231 251 236 229 243 237 219 205
114 182 258 39 344 27 68 60 345 38 57 267 288 334 339 55 100 158 48 44 45 70 21 326 278 359 172 158 118 134 123 104 42 6 237 250 259 222 201 162 160 173 66 83 274 344 62 79 78 9 310 312 318 317 338 32 93 110 11 68 118 37 67 132 159 142 123 153 141 74 322 274 275 266 239 258 280 289 277 229 225 252 260 246 243 245 237 194
142 180 100 26 6 60 89 167 167 85 285 286 25 10 320 350 110 119 117 99 119 110 86 285 264 319 318 91 95 133 154 113 73 312 241 194 260 196 163 190 189 77 58 46 291 357 31 100 101 65 359 345 344 340 335 330 360 113 355 26 81 73 78 116 125 71 75 193 143 110 259 256 269 322 289 261 295 298 280 251 220 229 247 242 234 240 233 207
97 107 306 357 36 71 125 185 146 140 178 111 89 65 348 35 29 341 128 145 164 138 128 273 288 360 360 53 55 33 9 87 128 276 341 242 282 337 86 209 292 33 202 241 310 43 107 118 108 113 129 161 230 256 263 257 262 314 34 50 71 98 103 146 100 58 338 226 140 159 227 264 294 337 336 290 301 290 273 276 254 235 238 232 223 223 215 202
106 102 302 334 24 58 71 140 109 125 162 138 118 175 104 86 319 329 73 128 160 143 130 284 317 32 32 53 46 9 349 12 80 116 125 259 277 294 318 198 145 204 194 106 39 74 100 83 84 127 151 174 191 211 244 243 173 254 243 180 203 147 121 111 92 101 218 164 192 222 212 287 303 315 324 307 291 254 255 283 281 259 248 236 222 213 212 208
135 178 180 175 15 41 37 19 80 111 163 151 134 172 155 140 318 354 30 94 151 127 106 71 69 62 268 114 92 19 339 356 23 86 135 252 275 286 289 130 115 215 160 95 29 79 96 75 71 112 141 202 198 220 300 5 167 226 227 185 225 178 128 132 162 211 173 120 288 257 189 243 277 270 279 290 296 274 256 250 245 244 234 223 210 196 202 207
167 190 167 147 210 152 110 180 134 108 109 114 100 131 146 147 173 174 171 34 71 119 115 91 359 216 222 214 128 117 9 15 18 46 159 221 280 339 351 46 48 355 86 57 348 99 105 105 213 119 76 260 232 281 312 303 234 245 211 220 227 184 174 193 215 210 169 174 250 228 161 227 260 263 264 263 258 251 243 229 227 228 207 194 189 191 201 206
83 144 307 349 341 177 177 167 130 115 103 93 89 145 162 170 189 205 184 82 27 309 122 174 262 236 212 297 82 134 180 135 136 252 209 165 210 11 34 359 360 35 80 58 7 81 115 113 212 134 48 310 292 310 329 37 351 295 246 224 210 194 198 210 234 222 191 233 256 219 233 267 265 254 259 263 243 225 239 248 231 221 205 192 190 202 209 209
128 152 210 27 48 139 121 78 116 117 85 51 111 171 168 172 187 211 183 132 143 226 165 188 241 208 121 61 68 192 220 175 161 223 180 133 104 212 184 206 162 48 42 58 360 348 76 98 186 104 51 323 328 360 10 41 59 269 273 248 201 206 232 231 241 215 197 261 269 254 276 281 269 233 252 282 302 200 253 263 237 223 215 202 200 212 218 218
141 124 137 103 56 328 50 74 112 120 113 281 173 179 183 191 194 177 130 154 158 174 182 179 177 147 81 67 230 277 262 193 185 218 181 153 166 191 180 202 158 106 32 44 351 354 61 102 93 69 55 298 324 10 343 344 48 259 277 261 217 199 210 211 207 194 188 205 217 148 261 267 269 260 275 296 333 216 255 258 250 239 213 200 210 218 219 221
155 102 114 110 78 297 154 95 83 120 194 232 180 176 186 199 196 162 122 294 132 138 181 166 145 122 79 161 227 262 271 231 230 237 187 140 98 102 99 75 96 112 140 118 38 5 84 119 145 89 90 273 308 4 339 349 14 294 267 244 210 198 205 233 243 222 206 174 151 192 228 239 264 360 276 269 262 249 252 249 246 243 218 207 220 223 223 225